Location: Fredericksburg
(30.2750°N, 98.8720°W)
Time: 00:41:22
(UTC-06:00)

Amateur Radio Satellites - All Passes

Search period start: 24 November 2014 00:11
Search period end: 25 November 2014 00:11
Location: Fredericksburg, 30.2750°N, 98.8720°W

Satellite Date Start Highest point End Downlink Frequencies (MHz)
Time Altitude Azimuth
ITUPSAT 1 24 Nov 00:12:32 00:14:34 13° 66° (ENE) 00:16:38 437.325
POLYITAN 1 24 Nov 00:18:54 00:22:08 22° 289° (WNW) 00:25:23 437.675
QB50P2 24 Nov 00:22:03 00:25:09 20° 289° (WNW) 00:28:14 145.880/145.840
JUGNU 24 Nov 00:22:18 00:26:45 22° 168° (SSE) 00:31:14 437.505
SWISSCUBE 24 Nov 00:23:01 00:26:21 19° 69° (ENE) 00:29:41 437.505
TISAT 1 24 Nov 00:29:55 00:34:00 44° 260° (W) 00:38:05 437.305
SRMSAT 24 Nov 00:29:56 00:32:44 14° 162° (SSE) 00:35:32 437.500
DUCHIFAT 1 24 Nov 00:30:04 00:32:44 17° 290° (WNW) 00:35:24 145.980
TIGRISAT 24 Nov 00:30:56 00:32:50 13° 291° (WNW) 00:34:45 435.000
SPROUT 24 Nov 00:32:07 00:36:19 50° 260° (W) 00:40:31 437.525
AUBIESAT-1 24 Nov 00:43:03 00:46:46 54° 70° (ENE) 00:50:52 437.475
M-CUBED/EXP-1 PRIME 24 Nov 00:46:32 00:50:18 68° 72° (ENE) 00:54:28 437.505
BEESAT 24 Nov 00:53:24 00:57:47 38° 73° (ENE) 01:02:12 436.000
CUSAT 1 24 Nov 01:29:26 01:34:01 37° 264° (W) 01:39:58 437.405
YUBILEINY 24 Nov 01:42:48 01:48:21 19° 82° (E) 01:53:53 435.215
Oscar 19 24 Nov 01:44:38 01:49:38 49° 100° (E) 01:54:37 437.125/150
DANDE 24 Nov 01:45:09 01:49:24 30° 264° (W) 01:54:50 436.750
ITUPSAT 1 24 Nov 01:47:17 01:51:57 52° 260° (W) 01:56:39 437.325
MaSat-1 24 Nov 01:48:42 01:50:58 43° 68° (ENE) 01:53:20 437.345
KKS-1 24 Nov 01:58:01 02:02:05 36° 73° (ENE) 02:06:09 437.445
SWISSCUBE 24 Nov 01:59:35 02:03:54 34° 262° (W) 02:08:16 437.505
RS-15 24 Nov 02:04:27 02:15:41 65° 60° (ENE) 02:27:24 29.354- 29.394
JUGNU 24 Nov 02:10:11 02:15:17 30° 178° (S) 02:20:25 437.505
SRMSAT 24 Nov 02:16:35 02:21:22 25° 170° (S) 02:26:09 437.500
ITAMSAT 1 24 Nov 02:32:31 02:37:35 54° 101° (E) 02:42:36 435.822/435.867
BEESAT 24 Nov 02:32:45 02:35:42 16° 265° (W) 02:38:40 436.000
Gurwin Techsat 1B 24 Nov 02:51:18 02:56:23 46° 100° (E) 03:01:26 435.225
STARS 24 Nov 02:58:18 03:02:40 62° 259° (W) 03:07:02 437.465
HORYU 2 24 Nov 03:11:01 03:14:53 28° 98° (E) 03:18:45 437.375
Oscar 19 24 Nov 03:25:35 03:28:30 15° 293° (WNW) 03:31:25 437.125/150
AO-7 24 Nov 03:34:03 03:40:05 22° 96° (E) 03:46:05 29.400- 29.500
YUBILEINY 24 Nov 03:35:25 03:44:11 71° 277° (W) 03:52:58 435.215
KKS-1 24 Nov 03:36:16 03:38:46 15° 265° (W) 03:41:17 437.445
JUGNU 24 Nov 03:58:57 04:03:52 27° 188° (S) 04:08:47 437.505
SO-50 24 Nov 04:00:17 04:04:38 58° 114° (ESE) 04:09:08 436.795
SRMSAT 24 Nov 04:04:55 04:10:05 30° 180° (S) 04:15:15 437.500
ITAMSAT 1 24 Nov 04:13:57 04:16:33 14° 294° (WNW) 04:19:08 435.822/435.867
RS-15 24 Nov 04:18:06 04:27:16 29° 255° (WSW) 04:36:48 29.354- 29.394
MOZHAYETS 4 24 Nov 04:23:05 04:27:10 33° 73° (ENE) 04:31:18
Gurwin Techsat 1B 24 Nov 04:32:35 04:35:55 17° 293° (WNW) 04:39:16 435.225
HORYU 2 24 Nov 04:48:06 04:51:20 20° 290° (WNW) 04:54:34 437.375
O/OREOS (USA 219) 24 Nov 05:23:51 05:25:44 13° 99° (E) 05:27:37 437.305
AO-7 24 Nov 05:24:58 05:33:12 65° 290° (WNW) 05:41:26 29.400- 29.500
JAS-2 24 Nov 05:33:13 05:40:03 58° 100° (E) 05:46:02 435.910
STRAND 1 24 Nov 05:38:45 05:41:50 16° 67° (ENE) 05:44:55 437.568
CUTE-I 24 Nov 05:38:53 05:41:07 13° 93° (E) 05:43:20 437.470
SO-50 24 Nov 05:43:36 05:45:33 13° 310° (NW) 05:47:31 436.795
BEESAT 3 24 Nov 05:43:44 05:46:59 22° 56° (NE) 05:50:13 437.485
JUGNU 24 Nov 05:48:54 05:52:22 16° 197° (SSW) 05:55:50 437.505
SRMSAT 24 Nov 05:54:04 05:58:48 24° 190° (S) 06:03:31 437.500
PCSat 24 Nov 05:55:44 06:01:02 53° 63° (ENE) 06:06:17 145.827
BEESAT 2 24 Nov 05:57:07 06:00:43 27° 57° (ENE) 06:04:17 435.950
CUBESAT XI-V 24 Nov 05:58:40 06:02:28 25° 71° (ENE) 06:06:15 437.345
MOZHAYETS 4 24 Nov 06:01:29 06:04:25 17° 265° (W) 06:07:22
PRISM 24 Nov 06:21:49 06:25:52 51° 260° (W) 06:29:59 437.425
AIST 2 24 Nov 06:22:08 06:25:42 25° 57° (ENE) 06:29:13 435.215
Cubesat XI-IV 24 Nov 06:34:13 06:39:25 53° 101° (E) 06:44:34 437.490
AIST 1 24 Nov 06:39:00 06:41:10 14° 75° (ENE) 06:43:20
ISS 24 Nov 06:41:03 06:41:58 11° 33° (NNE) 06:42:54 145.825
O/OREOS (USA 219) 24 Nov 07:00:27 07:04:41 41° 291° (WNW) 07:08:56 437.305
STRAND 1 24 Nov 07:15:39 07:20:34 46° 260° (W) 07:25:31 437.568
CUTE-I 24 Nov 07:16:14 07:21:26 57° 286° (WNW) 07:26:36 437.470
JAS-2 24 Nov 07:19:42 07:24:19 19° 297° (WNW) 07:28:37 435.910
BEESAT 3 24 Nov 07:21:44 07:25:07 24° 250° (WSW) 07:28:27 437.485
AO-7 24 Nov 07:24:15 07:24:23 10° 307° (NW) 07:24:31 29.400- 29.500
GONETS M04 24 Nov 07:31:56 07:38:02 21° 83° (E) 07:44:08
BEESAT 2 24 Nov 07:35:50 07:38:47 19° 251° (WSW) 07:41:42 435.950
CUBESAT XI-V 24 Nov 07:35:55 07:39:45 25° 264° (W) 07:43:36 437.345
PCSat 24 Nov 07:41:01 07:43:54 15° 256° (WSW) 07:46:47 145.827
SRMSAT 24 Nov 07:44:52 07:47:25 13° 199° (SSW) 07:49:58 437.500
AIST 2 24 Nov 08:00:53 08:04:10 22° 250° (WSW) 08:07:24 435.215
HO-68 24 Nov 08:08:03 08:11:54 15° 94° (E) 08:15:43 435.675
AIST 1 24 Nov 08:14:58 08:18:55 34° 269° (W) 08:22:49
ISS 24 Nov 08:15:38 08:18:55 67° 228° (SW) 08:22:11 145.825
Cubesat XI-IV 24 Nov 08:16:07 08:18:59 15° 294° (WNW) 08:21:51 437.490
CANX-2 24 Nov 08:23:15 08:24:56 12° 94° (E) 08:26:37 2200.000
DOVE 4 24 Nov 08:53:51 08:55:27 12° 95° (E) 08:57:04 437.250
CUTE 1.7 & AOD 2 24 Nov 08:56:19 09:00:04 29° 98° (E) 09:03:49 437.475
UKube-1 24 Nov 09:15:42 09:17:16 12° 94° (E) 09:18:50 .
GOMX 1 24 Nov 09:24:35 09:28:32 42° 100° (E) 09:32:37 467.674
GONETS M04 24 Nov 09:25:20 09:33:59 64° 278° (W) 09:42:45
Oscar 11 24 Nov 09:26:58 09:30:12 20° 96° (E) 09:33:25 145.826/435.025
SEEDS 24 Nov 09:31:29 09:35:44 73° 101° (ESE) 09:40:00 437.485
CUBEBUG 2 24 Nov 09:31:43 09:33:29 12° 95° (E) 09:35:15 437.445
UWE-3 24 Nov 09:36:18 09:37:52 12° 94° (E) 09:39:26 435.000/436.395/437.385
CINEMA 3 24 Nov 09:42:32 09:46:14 29° 98° (E) 09:50:03 145.822/145.860
BRITE-PL 24 Nov 09:43:06 09:47:14 73° 283° (WNW) 09:51:26 437.365/2234.400
DUCHIFAT 1 24 Nov 09:43:19 09:44:39 11° 68° (ENE) 09:45:58 145.980
TIGRISAT 24 Nov 09:46:55 09:49:57 19° 71° (ENE) 09:52:58 435.000
DX 1 24 Nov 09:47:12 09:51:04 31° 98° (E) 09:54:54 434.975-435.025
AAUSAT CUBESAT 2 24 Nov 09:52:20 09:56:35 84° 282° (WNW) 10:00:48 437.432
HO-68 24 Nov 09:52:54 10:00:03 73° 287° (WNW) 10:07:09 435.675
CANX-2 24 Nov 09:56:58 10:00:58 40° 286° (WNW) 10:04:59 2200.000
UNISAT 6 24 Nov 09:58:48 10:02:26 27° 72° (ENE) 10:06:02 437.425
NANOSAT C BR1 24 Nov 10:00:32 10:03:34 19° 71° (ENE) 10:06:36 145.865
COMPASS 1 24 Nov 10:06:24 10:10:29 47° 285° (WNW) 10:14:33 437.405
DELFI C3 24 Nov 10:07:29 10:11:34 55° 100° (E) 10:15:36 145.870
VELOX 1 24 Nov 10:09:29 10:12:07 16° 95° (E) 10:14:45 145.980
QB50P1 24 Nov 10:09:39 10:13:08 25° 72° (ENE) 10:16:37 145.935-145.965
HUMSAT D 24 Nov 10:12:41 10:15:17 16° 95° (E) 10:17:54 437.325/437.525
ZACube-1 24 Nov 10:13:49 10:17:34 30° 98° (E) 10:21:22 437.345
50 SAT 24 Nov 10:15:04 10:17:02 13° 95° (E) 10:19:01 437.505
ANTELSAT 24 Nov 10:26:38 10:30:52 63° 76° (ENE) 10:35:05 437.575/2403.000
DOVE 4 24 Nov 10:29:26 10:33:18 38° 285° (WNW) 10:37:17 437.250
BUGSAT 1 24 Nov 10:29:55 10:33:50 36° 74° (ENE) 10:37:44 437.445
CUTE 1.7 & AOD 2 24 Nov 10:32:57 10:35:44 17° 290° (WNW) 10:38:31 437.475
AISAT 24 Nov 10:33:23 10:37:19 31° 98° (E) 10:41:14 437.250
POPSAT HIP 1 24 Nov 10:33:27 10:37:35 50° 75° (ENE) 10:41:42 437.405
FUNcube-1 24 Nov 10:48:59 10:53:14 87° 102° (ESE) 10:57:34 145.935
UKube-1 24 Nov 10:49:28 10:53:33 42° 286° (WNW) 10:57:37 .
CUBEBUG 1 24 Nov 10:54:23 10:57:16 17° 95° (E) 11:00:07 437.445
Oscar 11 24 Nov 11:02:43 11:06:16 25° 288° (WNW) 11:09:48 145.826/435.025
GOMX 1 24 Nov 11:05:13 11:06:18 11° 291° (WNW) 11:07:24 467.674
POLYITAN 1 24 Nov 11:05:44 11:09:57 60° 259° (W) 11:14:10 437.675
CUBEBUG 2 24 Nov 11:06:18 11:10:15 39° 285° (WNW) 11:14:19 437.445
QB50P2 24 Nov 11:08:34 11:12:45 55° 260° (W) 11:16:56 145.880/145.840
UWE-3 24 Nov 11:10:31 11:14:30 41° 285° (WNW) 11:18:34 435.000/436.395/437.385
DUCHIFAT 1 24 Nov 11:16:00 11:20:04 45° 260° (W) 11:24:09 145.980
CINEMA 3 24 Nov 11:20:30 11:23:13 17° 289° (WNW) 11:25:59 145.822/145.860
TIGRISAT 24 Nov 11:22:58 11:26:31 25° 263° (W) 11:30:03 435.000
DX 1 24 Nov 11:24:17 11:27:01 17° 291° (WNW) 11:29:44 434.975-435.025
NANOSAT C BR1 24 Nov 11:35:42 11:39:15 26° 263° (W) 11:42:48 145.865
ESTCUBE 1 24 Nov 11:36:14 11:40:44 63° 101° (E) 11:45:11 437.505/2401.250
UNISAT 6 24 Nov 11:36:18 11:39:11 18° 264° (W) 11:42:03 437.425
VELOX 1 24 Nov 11:44:47 11:48:44 33° 287° (WNW) 11:52:40 145.980
QB50P1 24 Nov 11:45:50 11:48:56 20° 264° (W) 11:52:03 145.935-145.965
HUMSAT D 24 Nov 11:47:28 11:51:04 29° 287° (WNW) 11:54:42 437.325/437.525
50 SAT 24 Nov 11:48:45 11:52:23 32° 286° (WNW) 11:56:02 437.505
ZACube-1 24 Nov 11:51:01 11:53:41 17° 290° (WNW) 11:56:23 437.345
BUGSAT 1 24 Nov 12:07:18 12:09:23 13° 265° (W) 12:11:28 437.445
AISAT 24 Nov 12:10:50 12:13:40 17° 291° (WNW) 12:16:29 437.250
TISAT 1 24 Nov 12:20:52 12:24:53 44° 100° (E) 12:28:53 437.305
SPROUT 24 Nov 12:24:52 12:28:57 43° 99° (E) 12:32:59 437.525
CUBEBUG 1 24 Nov 12:29:52 12:33:37 29° 288° (WNW) 12:37:20 437.445
M-CUBED/EXP-1 PRIME 24 Nov 12:37:16 12:39:17 12° 97° (E) 12:41:17 437.505
SO-50 24 Nov 12:38:51 12:41:20 14° 51° (NE) 12:43:49 436.795
Oscar 19 24 Nov 12:56:01 13:00:43 39° 72° (ENE) 13:05:27 437.125/150
CUSAT 1 24 Nov 12:56:15 12:58:32 19° 96° (E) 13:00:35 437.405
BEESAT 24 Nov 13:00:52 13:03:45 16° 95° (E) 13:06:37 436.000
DANDE 24 Nov 13:13:36 13:16:30 30° 97° (E) 13:19:00 436.750
ITAMSAT 1 24 Nov 13:44:49 13:49:47 46° 73° (ENE) 13:54:44 435.822/435.867
YUBILEINY 24 Nov 13:53:09 14:01:23 45° 79° (E) 14:09:32 435.215
ITUPSAT 1 24 Nov 13:53:49 13:58:35 65° 102° (ESE) 14:03:19 437.325
KKS-1 24 Nov 13:57:34 13:58:47 11° 94° (E) 14:00:00 437.445
TISAT 1 24 Nov 13:59:04 14:00:17 11° 292° (WNW) 14:01:30 437.305
SPROUT 24 Nov 14:03:02 14:04:36 12° 292° (WNW) 14:06:10 437.525
PHONESAT 2.4 24 Nov 14:04:27 14:07:20 22° 141° (SE) 14:10:13 2401.200-2431.200
SWISSCUBE 24 Nov 14:05:28 14:10:16 82° 284° (WNW) 14:15:02 437.505
AUBIESAT-1 24 Nov 14:05:42 14:10:35 68° 288° (WNW) 14:15:17 437.475
HORYU 2 24 Nov 14:05:55 14:08:03 13° 68° (ENE) 14:10:11 437.375
Gurwin Techsat 1B 24 Nov 14:06:46 14:11:42 41° 72° (ENE) 14:16:39 435.225
M-CUBED/EXP-1 PRIME 24 Nov 14:09:43 14:14:33 56° 290° (WNW) 14:19:13 437.505
SO-50 24 Nov 14:17:25 14:22:15 62° 245° (WSW) 14:27:03 436.795
RS-15 24 Nov 14:19:13 14:20:43 10° 99° (E) 14:22:12 29.354- 29.394
VERMONT LUNAR 24 Nov 14:22:03 14:25:32 47° 146° (SE) 14:29:01 437.305
AO-7 24 Nov 14:28:13 14:33:29 19° 58° (ENE) 14:38:44 29.400- 29.500
Oscar 19 24 Nov 14:36:45 14:40:07 18° 265° (W) 14:43:31 437.125/150
BEESAT 24 Nov 14:37:14 14:41:40 39° 287° (WNW) 14:46:05 436.000
STARS 24 Nov 14:54:26 14:58:30 37° 99° (E) 15:02:34 437.465
MaSat-1 24 Nov 15:11:56 15:14:57 37° 110° (ESE) 15:17:43 437.345
ITAMSAT 1 24 Nov 15:26:17 15:29:23 16° 265° (W) 15:32:30 435.822/435.867
KKS-1 24 Nov 15:31:21 15:35:36 46° 286° (WNW) 15:39:50 437.445
JAS-2 24 Nov 15:39:45 15:44:13 17° 62° (ENE) 15:48:47 435.910
HORYU 2 24 Nov 15:40:10 15:44:19 41° 261° (W) 15:48:30 437.375
O/OREOS (USA 219) 24 Nov 15:40:19 15:40:35 10° 60° (ENE) 15:40:52 437.305
PHONESAT 2.4 24 Nov 15:42:17 15:45:56 55° 334° (NNW) 15:49:35 2401.200-2431.200
Gurwin Techsat 1B 24 Nov 15:48:11 15:51:45 18° 265° (W) 15:55:20 435.225
YUBILEINY 24 Nov 15:50:32 15:57:45 31° 274° (W) 16:04:58 435.215
VERMONT LUNAR 24 Nov 16:00:51 16:04:06 31° 340° (NNW) 16:07:22 437.305
AO-7 24 Nov 16:17:02 16:25:18 79° 254° (WSW) 16:33:38 29.400- 29.500
RS-15 24 Nov 16:20:14 16:31:13 74° 113° (ESE) 16:42:03 29.354- 29.394
MOZHAYETS 4 24 Nov 16:25:50 16:27:57 13° 93° (E) 16:30:04
STARS 24 Nov 16:32:17 16:34:38 14° 292° (WNW) 16:36:59 437.465
CUTE-I 24 Nov 16:55:42 16:58:04 13° 65° (ENE) 17:00:26 437.470
O/OREOS (USA 219) 24 Nov 17:15:55 17:20:17 57° 254° (WSW) 17:24:40 437.305
JAS-2 24 Nov 17:20:46 17:28:09 83° 257° (WSW) 17:36:03 435.910
PHONESAT 2.4 24 Nov 17:22:29 17:25:14 19° 350° (N) 17:27:59 2401.200-2431.200
VERMONT LUNAR 24 Nov 17:40:57 17:43:18 16° 357° (N) 17:45:39 437.305
Cubesat XI-IV 24 Nov 17:50:32 17:55:42 50° 73° (ENE) 18:00:52 437.490
MOZHAYETS 4 24 Nov 18:00:54 18:05:19 44° 286° (WNW) 18:09:43
PRISM 24 Nov 18:11:03 18:14:55 34° 99° (E) 18:18:45 437.425
AO-7 24 Nov 18:18:29 18:18:57 10° 268° (W) 18:19:25 29.400- 29.500
CUTE-I 24 Nov 18:32:15 18:37:32 62° 259° (WSW) 18:42:51 437.470
RS-15 24 Nov 18:35:39 18:44:27 27° 313° (NW) 18:53:19 29.354- 29.394
PCSat 24 Nov 18:50:49 18:53:54 16° 104° (ESE) 18:56:59 145.827
PHONESAT 2.4 24 Nov 19:02:18 19:04:54 18° 7° (N) 19:07:31 2401.200-2431.200
AIST 1 24 Nov 19:04:30 19:05:15 10° 86° (E) 19:06:00
JAS-2 24 Nov 19:11:54 19:14:01 11° 272° (W) 19:16:11 435.910
VERMONT LUNAR 24 Nov 19:19:45 19:22:37 21° 14° (NNE) 19:25:29 437.305
STRAND 1 24 Nov 19:31:54 19:37:01 84° 284° (WNW) 19:42:06 437.568
Cubesat XI-IV 24 Nov 19:32:58 19:35:58 15° 266° (W) 19:38:58 437.490
BEESAT 3 24 Nov 19:34:19 19:36:49 16° 109° (ESE) 19:39:20 437.485
CUBESAT XI-V 24 Nov 19:37:48 19:42:24 61° 284° (WNW) 19:46:56 437.345
GONETS M04 24 Nov 19:42:56 19:51:27 51° 80° (E) 19:59:52
CUTE 1.7 & AOD 2 24 Nov 19:46:50 19:47:45 11° 68° (ENE) 19:48:40 437.475
PRISM 24 Nov 19:47:51 19:50:07 14° 291° (WNW) 19:52:23 437.425
BEESAT 2 24 Nov 19:47:51 19:50:57 21° 110° (ESE) 19:54:05 435.950
HO-68 24 Nov 20:14:54 20:21:41 48° 70° (ENE) 20:28:30 435.675
AIST 2 24 Nov 20:15:42 20:18:50 21° 110° (ESE) 20:22:01 435.215
SEEDS 24 Nov 20:19:06 20:22:27 24° 72° (ENE) 20:25:48 437.485
GOMX 1 24 Nov 20:27:25 20:31:34 28° 73° (ENE) 20:35:29 467.674
PCSat 24 Nov 20:31:34 20:36:48 51° 297° (WNW) 20:42:04 145.827
AIST 1 24 Nov 20:38:13 20:42:24 44° 279° (W) 20:46:37
AAUSAT CUBESAT 2 24 Nov 20:38:35 20:42:11 30° 73° (ENE) 20:45:50 437.432
DX 1 24 Nov 20:38:57 20:41:17 14° 68° (ENE) 20:43:37 434.975-435.025
CINEMA 3 24 Nov 20:40:33 20:43:02 15° 70° (ENE) 20:45:29 145.822/145.860
PHONESAT 2.4 24 Nov 20:40:45 20:44:18 42° 24° (NNE) 20:47:50 2401.200-2431.200
CANX-2 24 Nov 20:44:10 20:48:19 67° 77° (ENE) 20:52:31 2200.000
BRITE-PL 24 Nov 20:47:36 20:52:48 69° 77° (ENE) 20:57:36 437.365/2234.400
DELFI C3 24 Nov 20:52:09 20:54:45 17° 70° (ENE) 20:57:22 145.870
COMPASS 1 24 Nov 20:52:23 20:56:25 53° 76° (ENE) 21:00:29 437.405
VERMONT LUNAR 24 Nov 20:57:50 21:01:28 81° 29° (NNE) 21:05:04 437.305
ZACube-1 24 Nov 21:06:49 21:08:31 12° 69° (ENE) 21:10:13 437.345
BEESAT 3 24 Nov 21:11:06 21:14:44 31° 302° (WNW) 21:18:25 437.485
CUTE 1.7 & AOD 2 24 Nov 21:19:11 21:23:12 46° 261° (W) 21:27:16 437.475
BEESAT 2 24 Nov 21:25:43 21:29:04 24° 304° (WNW) 21:32:28 435.950
AISAT 24 Nov 21:27:29 21:30:07 16° 69° (ENE) 21:32:45 437.250
DOVE 4 24 Nov 21:29:01 21:33:49 78° 258° (WSW) 21:38:19 437.250
UKube-1 24 Nov 21:38:36 21:42:56 77° 76° (ENE) 21:47:17 .
FUNcube-1 24 Nov 21:40:00 21:43:46 32° 74° (ENE) 21:47:29 145.935
GONETS M04 24 Nov 21:40:43 21:47:41 27° 275° (W) 21:54:39
Oscar 11 24 Nov 21:51:05 21:55:20 66° 259° (W) 21:59:37 145.826/435.025
AIST 2 24 Nov 21:53:45 21:57:17 26° 303° (WNW) 22:00:52 435.215
SEEDS 24 Nov 21:55:09 21:58:11 19° 264° (W) 22:01:13 437.485
CUBEBUG 2 24 Nov 21:58:54 22:03:15 83° 77° (ENE) 22:07:29 437.445
UWE-3 24 Nov 22:02:04 22:06:21 77° 77° (ENE) 22:10:33 435.000/436.395/437.385
HO-68 24 Nov 22:03:45 22:09:28 26° 263° (W) 22:15:14 435.675
GOMX 1 24 Nov 22:05:43 22:09:34 23° 263° (W) 22:13:15 467.674
DX 1 24 Nov 22:13:05 22:17:09 38° 261° (W) 22:21:14 434.975-435.025
AAUSAT CUBESAT 2 24 Nov 22:15:28 22:17:53 15° 265° (W) 22:20:18 437.432
CINEMA 3 24 Nov 22:15:49 22:19:58 35° 261° (W) 22:23:57 145.822/145.860
PHONESAT 2.4 24 Nov 22:19:45 22:23:01 30° 217° (SW) 22:26:16 2401.200-2431.200
JUGNU 24 Nov 22:21:24 22:23:24 12° 161° (SSE) 22:25:24 437.505
ANTELSAT 24 Nov 22:25:10 22:28:36 21° 97° (E) 22:32:05 437.575/2403.000
DELFI C3 24 Nov 22:26:23 22:29:49 26° 263° (W) 22:33:16 145.870
POPSAT HIP 1 24 Nov 22:26:44 22:28:41 13° 94° (E) 22:30:37 437.405
ESTCUBE 1 24 Nov 22:30:50 22:34:43 29° 72° (ENE) 22:38:38 437.505/2401.250
50 SAT 24 Nov 22:31:39 22:35:40 70° 77° (ENE) 22:39:41 437.505
HUMSAT D 24 Nov 22:33:39 22:37:48 88° 258° (WSW) 22:41:56 437.325/437.525
VELOX 1 24 Nov 22:36:27 22:40:55 78° 258° (WSW) 22:45:24 145.980
VERMONT LUNAR 24 Nov 22:37:44 22:39:36 14° 221° (SW) 22:41:28 437.305
ZACube-1 24 Nov 22:40:32 22:44:32 39° 261° (W) 22:48:29 437.345
POLYITAN 1 24 Nov 22:57:46 23:01:36 33° 99° (E) 23:05:25 437.675
QB50P2 24 Nov 23:00:17 23:04:11 36° 99° (E) 23:08:05 145.880/145.840
AISAT 24 Nov 23:02:17 23:06:25 36° 261° (W) 23:10:33 437.250
DUCHIFAT 1 24 Nov 23:07:08 23:11:08 43° 100° (E) 23:15:09 145.980
TISAT 1 24 Nov 23:09:16 23:12:01 17° 70° (ENE) 23:14:46 437.305
SPROUT 24 Nov 23:14:52 23:17:40 17° 70° (ENE) 23:20:27 437.525
ISS 24 Nov 23:16:33 23:19:46 59° 132° (SE) 23:23:00 145.825
FUNcube-1 24 Nov 23:17:46 23:20:08 15° 265° (W) 23:22:29 145.935
TIGRISAT 24 Nov 23:19:25 23:23:52 83° 283° (WNW) 23:28:25 435.000
CUBEBUG 1 24 Nov 23:19:45 23:24:11 74° 258° (WSW) 23:28:38 437.445
RS-15 24 Nov 23:19:50 23:23:32 12° 29° (NNE) 23:27:15 29.354- 29.394
NANOSAT C BR1 24 Nov 23:26:09 23:30:22 80° 101° (ESE) 23:34:35 145.865
UNISAT 6 24 Nov 23:32:25 23:36:47 56° 284° (WNW) 23:41:15 437.425
QB50P1 24 Nov 23:35:53 23:40:05 76° 283° (WNW) 23:44:17 145.935-145.965
CUSAT 1 24 Nov 23:38:17 23:42:06 21° 81° (E) 23:46:40 437.405
BUGSAT 1 24 Nov 23:53:36 23:57:34 53° 285° (WNW) 00:01:29 437.445
DANDE 24 Nov 23:57:54 00:02:02 26° 82° (E) 00:07:12 436.750
POPSAT HIP 1 25 Nov 00:00:48 00:04:39 36° 286° (WNW) 00:08:30 437.405
ANTELSAT 25 Nov 00:01:36 00:05:18 26° 288° (WNW) 00:09:03 437.575/2403.000
